Lid_Strength_Index
5 5 5 5 5 5 6 6 6 6 6 6 5 5 5 5 4 4 5 2 6 9 9 8 7 9 8 9 12 8 7 7 7 10 10 11 13 11 13 12 14 15 16 15 14 17 18 9 11 13 9 6 7 7
6 5 6 6 6 6 6 6 6 6 6 6 5 5 5 5 5 4 6 3 3 7 8 5 5 5 5 5 8 8 7 7 7 9 10 9 12 10 12 16 9 15 13 14 14 14 9 8 10 10 9 10 7 6
6 6 7 7 6 7 7 7 7 7 6 6 6 6 5 6 5 5 5 4 5 7 8 7 6 4 2 3 2 8 6 4 6 5 8 9 12 9 14 13 12 9 10 13 12 10 9 8 7 7 6 6 5 6
7 7 8 8 7 7 7 7 7 7 6 6 6 5 5 5 5 5 5 4 5 7 11 7 4 4 2 2 3 3 3 3 4 5 8 10 11 8 11 10 11 9 9 11 11 8 8 8 7 7 6 5 5 5
8 8 8 9 8 7 7 7 7 6 6 6 5 5 5 5 5 4 5 5 4 7 10 9 5 3 2 2 4 4 4 5 7 8 9 10 8 8 8 9 9 7 10 12 13 8 8 9 6 7 7 6 6 6
9 9 9 9 8 7 7 7 7 6 6 5 5 5 6 5 5 6 8 4 4 5 9 11 4 4 3 2 3 5 5 6 6 7 8 7 5 8 12 11 7 5 6 5 8 6 6 7 7 7 8 6 6 7
9 9 9 9 8 7 7 7 7 6 6 5 6 6 6 5 5 7 7 5 4 4 8 10 9 4 4 3 3 5 4 5 7 7 8 7 6 7 10 11 6 5 5 5 6 6 8 8 8 7 7 7 7 8
10 9 9 9 8 7 7 7 7 6 6 5 5 6 5 4 5 7 4 4 4 6 7 10 10 6 2 6 7 4 6 6 7 7 6 7 7 8 11 7 5 5 4 6 6 6 7 7 7 8 8 7 9 9
10 10 10 9 8 7 7 7 7 6 6 6 6 6 4 5 7 5 4 3 4 7 10 9 10 10 3 5 4 5 5 10 6 9 8 7 8 10 7 7 6 5 5 6 6 6 7 8 8 8 9 9 9 10
10 10 9 9 8 7 7 7 6 6 6 6 7 6 8 6 5 4 5 7 8 7 7 9 6 9 5 5 5 6 6 9 11 8 5 9 9 6 5 4 4 4 4 4 7 8 8 8 8 9 9 10 9 9
10 10 9 9 8 7 7 7 6 7 6 7 9 9 6 4 4 5 6 8 9 10 8 7 7 8 4 8 7 5 7 7 11 8 9 9 9 6 4 4 3 4 3 3 4 6 7 8 8 9 9 10 10 9
10 10 9 8 7 7 7 7 7 7 8 8 8 7 7 7 7 8 9 7 8 9 6 6 7 7 6 4 7 7 10 7 11 5 9 11 7 5 4 4 4 3 3 3 3 6 7 8 8 8 8 9 10 10
10 10 9 8 7 7 7 7 7 7 7 7 9 10 9 8 11 11 11 9 10 6 7 7 9 6 7 6 7 8 11 11 5 9 10 7 6 5 4 4 4 3 3 3 3 4 6 8 9 9 9 8 9 11
10 9 8 7 7 7 7 7 7 7 8 10 11 13 10 10 10 8 8 9 7 6 6 6 7 8 8 9 9 12 8 7 12 12 10 5 5 4 4 3 3 4 3 3 3 4 5 7 8 9 8 9 9 11
9 8 7 7 8 7 7 7 7 6 8 11 10 13 10 7 6 5 5 6 5 5 5 7 7 7 11 12 9 10 11 13 11 10 8 5 5 4 4 3 3 3 3 3 3 3 4 6 7 8 9 8 9 10
8 8 7 8 8 7 7 7 7 8 9 10 10 10 8 8 7 6 5 6 5 5 5 6 7 9 11 10 12 12 12 14 11 7 5 4 4 4 3 3 3 3 3 3 2 3 3 5 7 7 8 8 9 9
8 8 8 8 8 7 7 8 9 11 11 10 9 7 7 8 7 5 4 5 4 6 7 6 10 10 8 12 13 9 10 9 6 5 4 4 4 4 3 3 3 3 3 3 2 2 2 3 5 6 7 8 9 9
8 7 8 8 7 7 7 7 9 9 11 8 9 8 7 6 6 5 3 3 4 5 6 7 6 9 10 12 10 8 7 6 5 4 4 4 3 3 3 3 2 2 2 2 2 2 2 3 4 6 6 6 7 7
8 8 8 7 7 8 10 8 6 10 9 8 7 7 6 5 3 3 3 2 3 3 5 5 8 8 8 7 8 7 6 6 5 4 4 3 3 2 3 2 2 2 2 2 2 2 2 2 3 4 5 6 6 6
8 8 8 8 7 8 11 8 5 8 9 8 7 7 6 5 3 3 3 3 3 4 7 8 7 6 7 6 5 4 4 4 4 5 5 4 3 3 2 2 3 2 2 2 2 4 2 2 2 3 4 5 6 6
9 8 7 7 6 6 8 7 8 7 7 8 7 6 5 4 4 4 4 3 4 5 7 6 6 5 3 4 3 4 4 4 4 4 5 5 3 3 3 2 2 2 3 3 3 3 3 2 2 2 4 4 4 4
7 8 7 7 8 7 7 5 7 6 7 7 7 5 6 6 6 5 4 5 7 7 7 7 7 6 5 4 4 4 4 4 3 3 4 4 4 4 3 2 2 3 3 3 2 2 2 2 2 3 3 4 4 4
8 7 7 8 10 9 9 4 8 7 10 8 6 8 7 7 6 4 8 7 6 5 6 7 7 6 6 4 4 4 4 4 4 4 4 4 3 2 2 2 2 3 3 2 2 2 2 4 4 3 3 4 3 4
8 10 11 10 8 10 7 8 6 7 8 8 8 9 8 7 5 7 9 8 6 5 6 7 7 7 7 6 7 7 6 6 6 5 4 4 4 3 2 2 2 2 2 1 2 2 2 1 4 2 3 4 4 5
13 13 11 13 8 10 11 10 9 9 11 9 10 9 8 5 8 9 9 8 7 7 7 7 7 7 8 8 8 8 7 7 8 7 5 4 3 3 3 2 2 1 1 2 2 2 2 2 2 2 3 3 4 4
16 12 11 10 9 10 8 11 11 11 10 10 9 6 6 7 9 11 9 8 8 8 8 8 8 8 8 7 8 9 9 8 8 8 5 4 4 4 4 4 3 3 1 1 2 2 2 2 2 3 3 4 8 4
15 12 9 6 6 6 8 7 7 9 11 10 7 8 8 11 11 9 7 6 8 7 6 6 7 8 8 8 7 7 8 8 8 7 5 5 5 5 5 6 5 3 2 1 1 1 2 2 2 3 3 3 3 3
9 9 10 8 8 6 10 10 10 10 9 6 6 10 11 11 11 8 7 6 6 6 6 6 6 6 7 6 7 7 7 7 7 7 6 6 6 6 7 6 5 8 3 1 1 1 1 1 2 2 2 3 4 3
9 7 7 9 9 9 9 8 8 6 5 6 8 8 9 8 8 8 7 6 5 6 7 7 7 6 6 6 6 6 7 8 9 11 12 11 10 9 8 8 6 6 4 1 8 6 2 2 2 2 2 2 3 3
8 6 7 8 9 8 6 4 5 4 3 4 4 6 8 8 6 5 6 6 6 7 7 7 7 8 9 9 9 8 7 8 9 11 12 12 12 10 9 8 8 7 6 3 1 3 10 5 6 3 4 4 3 4
5 6 7 7 7 5 3 3 2 4 5 6 5 6 8 8 7 6 7 6 6 7 7 7 7 8 9 9 10 10 10 8 8 9 10 9 9 10 9 9 9 8 7 5 3 4 4 4 4 4 5 6 7 6
6 6 7 9 7 3 2 4 5 6 6 6 7 6 7 7 10 9 8 7 8 9 9 9 9 9 7 8 8 8 9 8 8 9 10 10 9 9 8 8 9 9 9 9 8 8 7 6 5 7 7 6 6 6
6 6 6 7 7 6 5 5 7 8 8 8 8 8 8 9 12 9 7 7 8 9 8 8 7 7 7 7 7 7 8 7 8 10 10 11 11 11 9 8 8 9 10 11 11 11 11 11 11 11 11 11 11 10